Погода в Ленинском

Россия / Республика Саха (Якутия)     58°34′20″N   125°26′23″E
темп.,
°C
ветер,
м/с
пор.,
м/с
влажн.,
%
обл.,
%
осадки,
мм/ч
давл.,
гПа
погр.,
м
20 июня, вс
вс2000:00+17юз2275100 0.1 100711
03:00+15юз3282100 0.1 100819
06:00+16юз2281100 0.0 100928
09:00+18зюз116677 0.0 1010204
12:00+21зсз1256100 0.0 1009924
15:00+23с335294 0.9 10081217
18:00+22с2352100 0.0 1008783
21:00+18ссз11736 0.0 100811
21 июня, пн
пн2100:00+14юв1181100 0.0 100911
03:00+14ю117964 0.0 100811
06:00+18ссз017054 0.3 100835
09:00+21ссз115946 0.9 1008528
12:00+24с434748 0.4 10071945
15:00+23св2351100 1.2 10061560
18:00+16ююв238184 3.1 100684
21:00+16юв1184100 9.1 100713
22 июня, вт
вт2200:00+15юз218441 1.3 100610
03:00+13ююз118457 1.6 100611
06:00+17ююз1176100 0.0 100658
09:00+20ссз116446 0.1 1005650
12:00+22с22536 0.0 10041206
15:00+24с434848 0.0 10041989
18:00+23ссв655291 0.1 10041536
21:00+18ю227310 0.9 100511
23 июня, ср
ср2300:00+14юз11825 0.0 100611
03:00+13сз00855 0.0 100711
06:00+18з117446 0.0 100765
09:00+21ссз11605 0.0 1007537
12:00+24с22466 0.0 10071781
15:00+25с434433 0.0 10071638
18:00+24ссв44475 0.0 10061197
21:00+20ссв337147 0.0 100716
24 июня, чт
чт2400:00+16ю11777 0.0 100711
03:00+15ююз11795 0.1 100711
06:00+19зсз01709 0.0 100755
09:00+23с21515 0.0 1006677
12:00+25с22476 0.0 10051520
15:00+26с324449 0.0 10042033
18:00+16юз2288100 3.6 100560
21:00+18ююв22727 4.5 100418